Location: Hopkins Observatory
(42.6965°N, 73.1843°W)
Time: 12:25:32
(UTC-05:00)

UOSAT-12 - Visible Passes

Search period start: 07 February 2016 00:00
Search period end: 17 February 2016 00:00
Orbit: 612 x 642 km, 64.6° (Epoch: 07 February)

Date Brightness Start Highest point End Pass type
(mag) Time Alt. Az. Time Alt. Az. Time Alt. Az.
07 Feb 9.1 05:48:21 10° S 05:52:25 32° ESE 05:56:31 10° NE visible
08 Feb 7.5 06:07:38 10° SSW 06:12:13 69° ESE 06:16:49 10° NE visible
09 Feb 9.9 04:49:27 10° SSE 04:52:30 18° ESE 04:55:35 10° ENE visible
10 Feb 8.6 05:07:55 10° S 05:12:10 37° ESE 05:16:26 10° NE visible
11 Feb 7.2 05:27:23 10° SSW 05:32:00 82° ESE 05:36:38 10° NE visible
12 Feb 9.4 04:10:03 15° SSE 04:12:13 21° ESE 04:15:39 10° ENE visible
12 Feb 7.4 05:47:32 10° SW 05:52:00 48° NW 05:56:29 10° NNE visible
13 Feb 8.1 04:30:44 36° SSE 04:31:54 45° ESE 04:36:19 10° NE visible
13 Feb 8.2 06:08:19 10° W 06:12:11 26° NW 06:16:04 10° NNE visible
14 Feb 10.3 03:13:44 10° E 03:13:44 10° E 03:13:45 10° E visible
14 Feb 7.0 04:51:04 64° SW 04:51:46 85° WNW 04:56:25 10° NNE visible
15 Feb 9.7 03:33:51 19° ENE 03:33:51 19° ENE 03:35:40 10° ENE visible
15 Feb 7.5 05:11:11 39° WNW 05:11:49 41° NW 05:16:13 10° NNE visible
16 Feb 9.0 03:53:48 28° NE 03:53:48 28° NE 03:56:10 10° NE visible
16 Feb 8.4 05:31:07 22° WNW 05:32:03 23° NW 05:35:44 10° N visible
